FW2284 Weather Reports


Display with metric or nautical units.
time (UTC)temp
F
wind
direction
speed
MPH
gust
MPH
rain 1hr
in
rain 24hr
in
rain mn
in
humidity
%
barometer
mb
20260906151518 81 13 2.0 6.0 0.00 0.00 0.00 73 1015.4
20260906150017 81 86 3.0 8.0 0.00 0.00 0.00 75 1015.2
20260906144522 80 18 1.0 7.0 0.00 0.00 0.00 75 1015.1
20260906143012 80 25 0.0 7.0 0.00 0.00 0.00 76 1015.2
20260906141514 79 53 1.0 5.0 0.00 0.00 0.00 78 1015.0
20260906140016 78 96 0.0 6.0 0.00 0.00 0.00 80 1014.9
20260906134524 78 86 2.0 5.0 0.00 0.00 0.00 80 1014.9
20260906133008 77 340 1.0 6.0 0.00 0.00 0.00 81 1015.1
20260906131507 76 319 1.0 5.0 0.00 0.00 0.00 83 1015.0
20260906130010 75 341 0.0 4.0 0.00 0.00 0.00 85 1015.1
20260906124506 74 319 1.0 5.0 0.00 0.00 0.00 86 1015.0
20260906123004 74 351 0.0 4.0 0.00 0.00 0.00 88 1014.9
20260906121504 73 343 0.0 2.0 0.00 0.00 0.00 90 1014.7
20260906120002 72 329 0.0 1.0 0.00 0.00 0.00 91 1014.5
20260906114509 72 11 0.0 1.0 0.00 0.00 0.00 90 1014.2
20260906113005 72 24 0.0 1.0 0.00 0.00 0.00 90 1014.2
20260906111504 73 335 0.0 0.0 0.00 0.00 0.00 90 1014.1
20260906110003 73 351 0.0 1.0 0.00 0.00 0.00 90 1014.2
20260906104627 73 339 0.0 1.0 0.00 0.00 0.00 90 1013.9
20260906103056 74 13 0.0 1.0 0.00 0.00 0.00 90 1013.7
20260906101554 74 340 0.0 1.0 0.00 0.00 0.00 90 1013.7
20260906100053 75 1 0.0 2.0 0.00 0.00 0.00 89 1013.6
20260906094551 75 72 0.0 4.0 0.00 0.00 0.00 89 1013.5
20260906093105 75 58 0.0 1.0 0.00 0.00 0.00 89 1013.7
20260906091548 76 342 0.0 2.0 0.00 0.00 0.00 89 1013.6
20260906090045 76 51 0.0 1.0 0.00 0.00 0.00 90 1013.4
20260906084543 76 236 0.0 2.0 0.00 0.00 0.00 90 1013.3
20260906083044 77 359 0.0 3.0 0.00 0.00 0.00 90 1013.0
20260906081540 77 7 0.0 0.0 0.00 0.00 0.00 90 1012.9
20260906080040 77 113 0.0 1.0 0.00 0.00 0.00 89 1012.9
20260906074537 77 331 0.0 1.0 0.00 0.00 0.00 89 1013.0
20260906073037 77 347 0.0 0.0 0.00 0.00 0.00 88 1013.0
20260906071536 78 346 0.0 0.0 0.00 0.00 0.00 88 1013.1
20260906070035 78 346 0.0 0.0 0.00 0.00 0.00 87 1012.9
20260906064533 78 346 0.0 0.0 0.00 0.00 0.00 86 1012.9
20260906063032 78 346 0.0 0.0 0.00 0.00 0.00 85 1013.2
20260906061530 79 346 0.0 0.0 0.00 0.00 0.00 84 1013.2
20260906060031 78 346 0.0 0.0 0.00 0.00 0.00 84 1013.2
20260906054528 79 347 0.0 0.0 0.00 0.00 0.00 82 1013.1
20260906053027 79 347 0.0 0.0 0.00 0.00 0.00 81 1013.2
20260906051529 79 347 0.0 0.0 0.00 0.00 0.00 81 1013.2
20260906050026 80 347 0.0 0.0 0.00 0.00 0.00 79 1013.0
20260906044522 80 347 0.0 0.0 0.00 0.00 0.00 78 1013.0
20260906043022 80 347 0.0 0.0 0.00 0.00 0.00 76 1012.8
20260906041525 81 347 0.0 0.0 0.00 0.00 0.00 75 1012.7
20260906040020 81 347 0.0 0.0 0.00 0.00 0.00 74 1012.6
20260906034520 81 347 0.0 0.0 0.00 0.00 0.00 73 1012.5
20260906033019 82 347 0.0 0.0 0.00 0.00 0.00 70 1012.5
20260906031518 83 347 0.0 0.0 0.00 0.00 0.00 70 1012.4
20260906030018 83 347 0.0 0.0 0.00 0.00 0.00 70 1012.2
20260906024517 83 347 0.0 1.0 0.00 0.00 0.00 70 1012.1
20260906023021 83 349 0.0 0.0 0.00 0.00 0.00 70 1011.7
20260906021517 83 360 0.0 0.0 0.00 0.00 0.00 69 1011.5
20260906020016 83 360 0.0 0.0 0.00 0.00 0.00 69 1011.4
20260906014521 84 360 0.0 0.0 0.00 0.00 0.00 68 1011.1
20260906013023 84 360 0.0 0.0 0.00 0.00 0.00 66 1011.0
20260906011519 86 360 0.0 0.0 0.00 0.00 0.00 63 1010.9
20260906010014 87 360 0.0 0.0 0.00 0.00 0.00 60 1010.8
20260906004512 88 340 0.0 1.0 0.00 0.00 0.00 59 1010.6
20260906003012 89 337 0.0 1.0 0.00 0.00 0.00 58 1010.6
20260906001510 91 337 0.0 1.0 0.00 0.00 0.00 54 1010.7
20260906000010 92 326 0.0 4.0 0.00 0.00 0.00 52 1010.7
20260905234509 93 333 1.0 4.0 0.00 0.00 0.00 50 1010.7
20260905233014 94 338 2.0 4.0 0.00 0.00 0.00 48 1010.7
20260905231505 95 342 1.0 5.0 0.00 0.00 0.00 47 1010.7
20260905230004 96 335 1.0 11.0 0.00 0.00 0.00 46 1010.9
20260905224503 96 344 0.0 2.0 0.00 0.00 0.00 47 1010.8
20260905223005 97 1 0.0 4.0 0.00 0.00 0.00 44 1010.5
20260905221504 99 68 0.0 2.0 0.00 0.00 0.00 41 1010.5
20260905220101 101 18 1.0 2.0 0.00 0.00 0.00 40 1010.6
20260905214601 98 328 1.0 3.0 0.00 0.00 0.00 44 1010.7
20260905213059 98 52 1.0 4.0 0.00 0.00 0.00 43 1010.7
20260905211602 97 307 0.0 6.0 0.00 0.00 0.00 43 1010.6
20260905210058 96 138 0.0 3.0 0.00 0.00 0.00 49 1010.8
20260905204555 96 186 1.0 4.0 0.00 0.00 0.00 48 1011.0
20260905203100 96 191 2.0 6.0 0.00 0.00 0.00 47 1011.0
20260905201555 95 148 3.0 5.0 0.00 0.00 0.00 52 1011.2
20260905200101 96 143 2.0 5.0 0.00 0.00 0.00 48 1011.3
20260905194551 97 152 1.0 3.0 0.00 0.00 0.00 47 1011.3
20260905193105 98 158 1.0 4.0 0.00 0.00 0.00 42 1011.7
20260905191548 98 327 3.0 8.0 0.00 0.00 0.00 39 1011.9
20260905190047 101 315 4.0 7.0 0.00 0.00 0.00 36 1011.7
20260905184545 100 32 1.0 4.0 0.00 0.00 0.00 38 1012.1
20260905183145 100 311 3.0 8.0 0.00 0.00 0.00 39 1012.3
20260905181542 99 319 3.0 6.0 0.00 0.00 0.00 40 1012.3
20260905180040 99 315 2.0 8.0 0.00 0.00 0.00 39 1012.4
20260905174638 97 252 1.0 3.0 0.00 0.00 0.00 45 1012.7
20260905173042 98 68 0.0 6.0 0.00 0.00 0.00 43 1012.7
20260905171536 99 347 1.0 10.0 0.00 0.00 0.00 44 1012.7
20260905170037 98 316 2.0 6.0 0.00 0.00 0.00 45 1013.1
20260905164531 97 252 4.0 7.0 0.00 0.00 0.00 45 1013.2
20260905163030 97 293 5.0 10.0 0.00 0.00 0.00 46 1013.3
20260905161529 97 266 2.0 5.0 0.00 0.00 0.00 45 1013.4
20260905160029 95 223 0.0 4.0 0.00 0.00 0.00 49 1013.4
20260905154524 94 307 0.0 5.0 0.00 0.00 0.00 51 1013.3
20260905153022 93 323 3.0 5.0 0.00 0.00 0.00 53 1013.4